Location: Bailleul
(50.3375°N, 2.8513°E)
Time: 09:32:56
(UTC+00:00)

Cosmos 1626 - Pass Details

Date: 16 June 2021
Orbit: 489 x 492 km, 82.5° (Epoch: 26 July)

Event Time Altitude Azimuth Distance (km) Brightness Sun altitude
Exits shadow 21:27:00 11° 176° (S) 1,637 4.2 -9.8°
Maximum altitude 21:30:31 60° 97° (E) 570 2.2 -10.1°
Drops below altitude 10° 21:34:11 10° 17° (NNE) 1,700 5.4 -10.4°
Sets 21:36:20 0° 14° (NNE) 2,588 6.5 -10.6°
